AirNav   ProFlight Series 2 Aviation Headset
 
 1048 users online  

MI54 Helifarm Heliport
Monroe, Michigan, USA

GOING TO MONROE?


FAA INFORMATION EFFECTIVE 16 JULY 2020

Location

FAA Identifier: MI54
Lat/Long: 41-47-37.0000N 083-32-17.0000W
41-47.616667N 083-32.283333W
41.7936111,-83.5380556
(estimated)
Elevation: 610 ft. / 186 m (estimated)
Variation: 06W (2000)
From city: 2 miles E of MONROE, MI
Time zone: UTC -4 (UTC -5 during Standard Time)
Zip code: 48182

Heliport Operations

Heliport use: Private use. Permission required prior to landing
Activation date: 11/2002
Control tower: no
ARTCC: CLEVELAND CENTER
FSS: LANSING FLIGHT SERVICE STATION
Attendance: UNATNDD
Segmented circle: no

Heliport Communications

WX AWOS-3 at DUH (6 nm SW): 119.175 (734-856-1563)
WX AWOS-3 at TTF (10 nm NE): 119.075 (734-384-0259)
WX ASOS at TDZ (14 nm S): 121.575 (419-838-5034)
WX ASOS at TOL (17 nm SW): PHONE 419-865-6924

Nearby radio navigation aids

VOR radial/distance  VOR name  Freq  Var
CRLr196/15.7CARLETON VOR/DME115.7003W
DXOr203/26.3DETROIT VOR/DME113.4006W
SVMr179/37.0SALEM VORTAC114.3003W

 
NDB name  Hdg/Dist  Freq  Var  ID
TECUMSEH139/21.223906WTCU - -.-. ..-
ADRIAN107/24.527806WADG .- -.. --.
GROSSE ILE230/25.241907WRYS .-. -.-- ...
PORT CLINTON306/34.242307WPCW .--. -.-. .--

Heliport Services

Runway Information

Helipad H1

Dimensions: 35 x 60 ft. / 11 x 18 m
Surface: turf
Traffic pattern: leftleft

Heliport Ownership and Management from official FAA records

Ownership: Privately-owned
Owner: KEVIN WALKER
708 E ERIE RD
TEMPERANCE, MI 48182
Phone (419) 297-3075
Manager: KEVIN WALKER
708 E ERIE RD
TEMPERANCE, MI 48182
Phone (419) 297-3075

Additional Remarks

A52-H1 18 FT BLDG SOUTH OF PAD AND 32 FT BLDG EAST OF PAD.
FOR CD CTC TOLEDO APCH AT 419-865-1495

Instrument Procedures

There are no published instrument procedures at MI54.

Some nearby airports with instrument procedures:

KDUH - Toledo Suburban Airport (6 nm SW)
KTTF - Custer Airport (10 nm NE)
KTDZ - Toledo Executive Airport (14 nm S)
KTOL - Toledo Express Airport (17 nm SW)
1G0 - Wood County Airport (25 nm S)
 
Loc | Ops | Rwys | IFR | FBO | Links
Com | Nav | Svcs | Stats | Notes
Area around MI54 (Helifarm Heliport)
 
Road maps at: MapQuest Bing Google
 
Aerial photo
No photo
 
Sectional chart

 
Airport distance calculator
Flying to Helifarm Heliport? Find the distance to fly.

From to MI54

Sunrise and sunset
Times for 04-Aug-2020
 Local
(UTC-4)
 Zulu
(UTC)
Morning civil twilight06:0210:02
Sunrise06:3310:33
Sunset20:4700:47
Evening civil twilight21:1801:18

Current date and time
Zulu (UTC)  05-Aug-2020 00:27:49
Local (UTC-4)  04-Aug-2020 20:27:49
 
METAR
KDUH 
6nm SW 
050015Z AUTO 32006KT 10SM CLR 20/13 A2998 RMK AO2 T02010132
KTTF 
10nm NE 
050015Z AUTO 29010KT 10SM SCT035 SCT043 SCT085 20/15 A2996 RMK AO2 T01960153
KTDZ 
14nm S 
042353Z AUTO 31009KT 10SM CLR 22/13 A2998 RMK AO2 SLP148 T02170128 10244 20217 53004
KTOL 
17nm SW 
042352Z 30008KT 10SM FEW041 FEW080 22/12 A2998 RMK AO2 SLP148 T02170122 10239 20217 53003
TAF
KTOL 
17nm SW 
041720Z 0418/0518 33008KT P6SM VCSH BKN035 FM042100 33008KT P6SM VCSH SCT045 FM042300 32008KT P6SM SCT090 FM051400 28004KT P6SM SCT200
NOTAMs
Click for the latest NOTAMs
NOTAMs are issued by the DoD/FAA and will open in a separate window not controlled by AirNav.

 

 
 

Would you like to see your business listed on this page?

 If your business provides an interesting product or service to pilots, flight crews, aircraft, or users of the Helifarm Heliport, you should consider listing it here.  To start the listing process, click on the button below
 
Add a business
 

Other Pages about Helifarm Heliport

Update a link
 
Copyright © AirNav, LLC. All rights reserved. Privacy Policy  Contact